AKDT,Max TemperatureF,Mean TemperatureF,Min TemperatureF,Max Dew PointF,MeanDew PointF,Min DewpointF,Max Humidity, Mean Humidity, Min Humidity, Max Sea Level PressureIn, Mean Sea Level PressureIn, Min Sea Level PressureIn, Max VisibilityMiles, Mean VisibilityMiles, Min VisibilityMiles, Max Wind SpeedMPH, Mean Wind SpeedMPH, Max Gust SpeedMPH,PrecipitationIn, CloudCover, Events, WindDirDegrees
2013-8-1,61,54,47,53,49,46,0,0,0,30.01,29.90,29.78,10,9,2,14,7,17,0.00,8,,174
2013-8-2,57,52,46,52,48,44,0,0,0,29.78,29.75,29.70,10,7,0,15,7,17,0.23,6,Fog-Rain,190
2013-8-3,47,43,39,46,40,37,0,0,0,29.70,29.62,29.59,10,6,0,18,12,22,0.28,8,Fog-Rain,34
2013-8-4,44,41,37,41,38,36,0,0,0,29.68,29.56,29.52,10,8,2,21,9,23,0.25,8,Rain,38
2013-8-5,37,37,36,37,35,33,0,0,0,30.11,29.92,29.70,10,9,2,16,11,18,0.01,8,Rain,6
2013-8-6,39,38,36,38,35,32,0,0,0,30.18,30.10,30.02,10,7,0,29,19,35,0.01,8,Fog-Rain,78
2013-8-7,45,41,37,39,38,37,0,0,0,30.01,29.89,29.75,10,7,0,16,11,18,T,7,Fog-Rain,79
2013-8-8,39,38,36,38,37,36,0,0,0,29.75,29.68,29.65,7,1,0,24,16,28,T,8,Fog,38
2013-8-9,41,39,36,38,36,35,0,0,0,29.72,29.69,29.66,10,4,0,23,11,28,0.06,8,Fog-Rain,50
2013-8-10,43,40,37,40,37,35,0,0,0,29.85,29.75,29.66,10,6,0,22,12,26,0.34,8,Fog-Rain,72
2013-8-11,63,50,37,54,45,37,100,92,70,30.06,29.95,29.85,10,5,0,15,9,,0.00,6,Fog,133
2013-8-12,58,50,42,50,45,42,0,0,0,30.08,30.06,30.05,10,6,0,15,7,17,0.01,7,Fog-Rain,71
2013-8-13,45,41,37,45,40,36,0,0,0,30.10,30.08,30.07,10,5,0,15,9,16,0.01,7,Fog-Rain,311
2013-8-14,43,39,35,37,36,34,0,0,0,30.08,30.06,30.04,10,5,0,12,7,14,T,8,Fog,355
2013-8-15,43,41,38,40,37,35,96,0,82,30.07,30.04,29.98,10,8,2,15,9,17,T,8,,49
2013-8-16,43,42,41,42,40,39,97,0,87,29.98,29.89,29.82,10,6,0,15,11,17,0.01,8,Fog-Rain,62
2013-8-17,45,43,40,43,40,36,97,0,81,29.83,29.80,29.78,10,6,0,12,8,13,T,8,Fog,48
2013-8-18,41,39,36,36,34,30,93,0,70,29.85,29.80,29.78,10,9,2,21,12,25,0.02,8,Rain-Snow,46
2013-8-19,37,34,31,34,31,24,93,0,72,30.01,29.94,29.86,10,9,3,22,16,25,T,8,Rain-Snow,51
2013-8-20,33,32,30,30,26,22,0,0,0,30.03,30.01,29.99,10,8,1,15,7,17,0.00,8,Snow,342
2013-8-21,37,34,30,32,30,26,0,0,0,29.99,29.89,29.81,10,8,2,10,5,13,T,7,Snow,278
2013-8-22,38,35,32,36,33,30,0,0,0,29.82,29.79,29.77,10,6,1,15,9,18,T,8,Fog-Snow,329
2013-8-23,37,36,34,34,30,28,0,0,0,30.00,29.90,29.80,10,9,3,12,6,14,0.01,7,Snow,1
2013-8-24,38,37,35,34,33,31,0,0,0,30.09,30.05,30.01,10,10,5,14,9,16,T,8,Snow,309
2013-8-25,39,37,35,36,32,28,0,0,0,30.11,30.10,30.09,10,9,2,23,10,21,T,7,Rain,41
2013-8-26,38,35,32,32,30,28,0,0,0,30.11,30.04,29.92,10,9,3,22,15,26,T,8,Snow,94
2013-8-27,43,39,34,39,35,32,0,0,0,29.91,29.72,29.62,10,8,0,25,18,31,0.00,8,Fog,106
2013-8-28,45,42,38,42,39,37,0,0,0,29.68,29.61,29.58,10,7,2,13,7,15,0.01,8,Rain,97
2013-8-29,40,35,30,36,33,28,0,0,0,29.88,29.80,29.69,10,10,6,15,9,18,T,7,Rain-Snow,261
2013-8-30,41,35,28,39,32,25,0,0,0,29.89,29.87,29.85,10,10,3,21,8,24,0.00,6,,282
2013-8-31,37,35,32,36,32,28,0,0,0,30.01,29.93,29.86,10,7,2,22,14,25,0.06,8,Rain-Snow,292